Time,TemperatureF,DewpointF,PressureIn,WindDirection,WindDirectionDegrees,WindSpeedMPH,WindSpeedGustMPH,Humidity,HourlyPrecipIn,Conditions,Clouds,dailyrainin,SoftwareType,DateUTC
2013-08-11 00:00:00,53.5,50.9,30.09,WNW,295,0.0,0.0,91,0.00,RA,,0.00,WeatherDisplay:10.37,2013-08-11 04:00:00,
2013-08-11 00:01:00,53.5,50.9,30.09,WNW,295,0.0,0.0,91,0.00,RA,,0.00,WeatherDisplay:10.37,2013-08-11 04:01:00,
2013-08-11 00:02:00,53.4,50.8,30.09,WNW,295,0.0,0.0,91,0.00,RA,,0.00,WeatherDisplay:10.37,2013-08-11 04:02:00,
2013-08-11 00:04:00,53.4,50.8,30.09,WNW,295,0.0,0.0,91,0.00,RA,,0.00,WeatherDisplay:10.37,2013-08-11 04:04:00,
2013-08-11 00:09:00,53.2,50.6,30.09,WNW,295,0.0,0.0,91,0.00,RA,,0.00,WeatherDisplay:10.37,2013-08-11 04:09:00,
2013-08-11 00:14:00,53.1,50.5,30.09,WNW,295,0.0,0.0,91,0.00,,,0.00,WeatherDisplay:10.37,2013-08-11 04:14:00,
2013-08-11 00:19:00,52.9,50.3,30.09,WNW,295,0.0,0.0,91,0.00,,,0.00,WeatherDisplay:10.37,2013-08-11 04:19:00,
2013-08-11 00:24:00,52.9,50.3,30.09,WNW,295,0.0,0.0,91,0.00,,,0.00,WeatherDisplay:10.37,2013-08-11 04:24:00,
2013-08-11 00:29:00,52.7,50.1,30.09,WNW,295,0.0,0.0,91,0.00,,,0.00,WeatherDisplay:10.37,2013-08-11 04:29:00,
2013-08-11 00:34:00,52.4,49.8,30.09,WNW,295,0.0,0.0,91,0.00,,,0.00,WeatherDisplay:10.37,2013-08-11 04:34:00,
2013-08-11 00:40:00,52.3,49.8,30.09,WNW,295,0.0,0.0,91,0.00,,,0.00,WeatherDisplay:10.37,2013-08-11 04:40:00,
2013-08-11 00:45:00,52.4,49.6,30.09,WNW,295,0.0,0.0,90,0.00,,,0.00,WeatherDisplay:10.37,2013-08-11 04:45:00,
2013-08-11 00:50:00,52.5,49.7,30.09,WNW,295,0.0,0.0,90,0.00,,,0.00,WeatherDisplay:10.37,2013-08-11 04:50:00,
2013-08-11 00:55:00,52.6,49.8,30.09,WNW,295,0.0,0.0,90,0.00,,,0.00,WeatherDisplay:10.37,2013-08-11 04:55:00,
2013-08-11 01:00:00,52.6,49.8,30.09,WNW,295,0.0,0.0,90,0.00,,,0.00,WeatherDisplay:10.37,2013-08-11 05:00:00,
2013-08-11 01:05:00,52.6,49.8,30.09,WNW,295,0.0,0.0,90,0.00,,,0.00,WeatherDisplay:10.37,2013-08-11 05:05:00,
2013-08-11 01:10:00,52.6,49.8,30.09,WNW,295,0.0,0.0,90,0.00,,,0.00,WeatherDisplay:10.37,2013-08-11 05:10:00,
2013-08-11 01:15:00,52.6,49.8,30.09,WNW,295,0.0,0.0,90,0.00,,,0.00,WeatherDisplay:10.37,2013-08-11 05:15:00,
2013-08-11 01:20:00,52.6,49.4,30.09,WNW,295,0.0,0.0,89,0.00,,,0.00,WeatherDisplay:10.37,2013-08-11 05:20:00,
2013-08-11 01:25:00,52.8,49.6,30.09,WNW,295,0.0,0.0,89,0.00,,,0.00,WeatherDisplay:10.37,2013-08-11 05:25:00,
2013-08-11 01:30:00,52.8,49.6,30.09,WNW,295,0.0,0.0,89,0.00,,,0.00,WeatherDisplay:10.37,2013-08-11 05:30:00,
2013-08-11 01:36:00,52.9,49.7,30.09,WNW,295,0.0,0.0,89,0.00,,,0.00,WeatherDisplay:10.37,2013-08-11 05:36:00,
2013-08-11 01:41:00,52.9,49.7,30.09,WNW,295,0.0,0.0,89,0.00,,,0.00,WeatherDisplay:10.37,2013-08-11 05:41:00,
2013-08-11 01:47:00,53.0,49.8,30.09,WNW,295,0.0,0.0,89,0.00,,,0.00,WeatherDisplay:10.37,2013-08-11 05:47:00,
2013-08-11 01:52:00,53.0,49.8,30.09,WNW,295,0.0,0.0,89,0.00,,,0.00,WeatherDisplay:10.37,2013-08-11 05:52:00,
2013-08-11 01:57:00,53.1,49.9,30.09,WNW,295,0.0,0.0,89,0.00,,,0.00,WeatherDisplay:10.37,2013-08-11 05:57:00,
2013-08-11 02:02:00,53.1,49.9,30.09,WNW,295,0.0,0.0,89,0.00,,,0.00,WeatherDisplay:10.37,2013-08-11 06:02:00,
2013-08-11 02:07:00,53.0,49.8,30.09,WNW,295,0.0,0.0,89,0.00,,,0.00,WeatherDisplay:10.37,2013-08-11 06:07:00,
2013-08-11 02:12:00,53.0,49.8,30.09,WNW,295,0.0,0.0,89,0.00,,,0.00,WeatherDisplay:10.37,2013-08-11 06:12:00,
2013-08-11 02:17:00,52.9,49.7,30.09,WNW,295,0.0,0.0,89,0.00,,,0.00,WeatherDisplay:10.37,2013-08-11 06:17:00,
2013-08-11 02:22:00,52.8,49.6,30.09,WNW,295,0.0,0.0,89,0.00,,,0.00,WeatherDisplay:10.37,2013-08-11 06:22:00,
2013-08-11 02:28:00,52.7,49.8,30.09,WNW,295,0.0,0.0,90,0.00,,,0.00,WeatherDisplay:10.37,2013-08-11 06:28:00,
2013-08-11 02:33:00,52.5,49.7,30.09,WNW,295,0.0,0.0,90,0.00,,,0.00,WeatherDisplay:10.37,2013-08-11 06:33:00,
2013-08-11 02:38:00,52.5,49.4,30.09,WNW,295,0.0,0.0,89,0.00,,,0.00,WeatherDisplay:10.37,2013-08-11 06:38:00,
2013-08-11 02:43:00,52.5,49.4,30.10,WNW,295,0.0,0.0,89,0.00,,,0.00,WeatherDisplay:10.37,2013-08-11 06:43:00,
2013-08-11 02:48:00,52.6,49.4,30.10,WNW,295,0.0,0.0,89,0.00,,,0.00,WeatherDisplay:10.37,2013-08-11 06:48:00,
2013-08-11 02:53:00,52.8,49.6,30.10,WNW,295,0.0,0.0,89,0.00,,,0.00,WeatherDisplay:10.37,2013-08-11 06:53:00,
2013-08-11 02:58:00,53.0,49.8,30.10,WNW,295,0.0,0.0,89,0.00,,,0.00,WeatherDisplay:10.37,2013-08-11 06:58:00,
2013-08-11 03:03:00,52.9,49.7,30.10,WNW,295,0.0,0.0,89,0.00,,,0.00,WeatherDisplay:10.37,2013-08-11 07:03:00,
2013-08-11 03:08:00,52.8,49.6,30.09,WNW,295,0.0,0.0,89,0.00,,,0.00,WeatherDisplay:10.37,2013-08-11 07:08:00,
2013-08-11 03:13:00,52.9,49.7,30.09,WNW,295,0.0,0.0,89,0.00,,,0.00,WeatherDisplay:10.37,2013-08-11 07:13:00,
2013-08-11 03:18:00,52.9,49.7,30.10,WNW,295,0.0,0.0,89,0.00,,,0.00,WeatherDisplay:10.37,2013-08-11 07:18:00,
2013-08-11 03:23:00,52.9,49.7,30.09,WNW,295,0.0,0.0,89,0.00,,,0.00,WeatherDisplay:10.37,2013-08-11 07:23:00,
2013-08-11 03:28:00,53.2,50.0,30.09,WNW,295,0.0,0.0,89,0.00,,,0.00,WeatherDisplay:10.37,2013-08-11 07:28:00,
2013-08-11 03:33:00,53.3,50.1,30.09,WNW,295,0.0,0.0,89,0.00,,,0.00,WeatherDisplay:10.37,2013-08-11 07:33:00,
2013-08-11 03:39:00,53.2,50.0,30.09,WNW,295,0.0,0.0,89,0.00,,,0.00,WeatherDisplay:10.37,2013-08-11 07:39:00,
2013-08-11 03:44:00,53.0,49.8,30.09,WNW,295,0.0,0.0,89,0.00,,,0.00,WeatherDisplay:10.37,2013-08-11 07:44:00,
2013-08-11 03:49:00,52.9,49.7,30.09,WNW,295,0.0,0.0,89,0.00,,,0.00,WeatherDisplay:10.37,2013-08-11 07:49:00,
2013-08-11 03:54:00,52.7,49.5,30.10,WNW,295,0.0,0.0,89,0.00,,,0.00,WeatherDisplay:10.37,2013-08-11 07:54:00,
2013-08-11 03:59:00,52.5,49.7,30.09,WNW,295,0.0,0.0,90,0.00,,,0.00,WeatherDisplay:10.37,2013-08-11 07:59:00,
2013-08-11 04:04:00,52.4,49.6,30.09,WNW,295,0.0,0.0,90,0.00,,,0.00,WeatherDisplay:10.37,2013-08-11 08:04:00,
2013-08-11 04:09:00,52.2,49.4,30.09,WNW,295,0.0,0.0,90,0.00,,,0.00,WeatherDisplay:10.37,2013-08-11 08:09:00,
2013-08-11 04:14:00,52.0,49.2,30.09,WNW,295,0.0,0.0,90,0.00,,,0.00,WeatherDisplay:10.37,2013-08-11 08:14:00,
2013-08-11 04:20:00,51.8,49.0,30.09,WNW,295,0.0,0.0,90,0.00,,,0.00,WeatherDisplay:10.37,2013-08-11 08:20:00,
2013-08-11 04:25:00,51.6,48.8,30.10,WNW,295,0.0,0.0,90,0.00,,,0.00,WeatherDisplay:10.37,2013-08-11 08:25:00,
2013-08-11 04:30:00,51.4,48.6,30.10,WNW,295,0.0,0.0,90,0.00,,,0.00,WeatherDisplay:10.37,2013-08-11 08:30:00,
2013-08-11 04:35:00,51.3,48.5,30.10,WNW,295,0.0,0.0,90,0.00,,,0.00,WeatherDisplay:10.37,2013-08-11 08:35:00,
2013-08-11 04:40:00,51.3,48.5,30.09,WNW,295,0.0,0.0,90,0.00,,,0.00,WeatherDisplay:10.37,2013-08-11 08:40:00,
2013-08-11 04:45:00,51.1,48.3,30.10,WNW,295,0.0,0.0,90,0.00,,,0.00,WeatherDisplay:10.37,2013-08-11 08:45:00,
2013-08-11 04:50:00,51.0,48.2,30.10,WNW,295,0.0,0.0,90,0.00,,,0.00,WeatherDisplay:10.37,2013-08-11 08:50:00,
2013-08-11 04:55:00,50.8,48.0,30.10,WNW,295,0.0,0.0,90,0.00,,,0.00,WeatherDisplay:10.37,2013-08-11 08:55:00,
2013-08-11 05:01:00,50.8,48.0,30.10,WNW,295,0.0,0.0,90,0.00,,,0.00,WeatherDisplay:10.37,2013-08-11 09:01:00,
2013-08-11 05:06:00,50.7,47.9,30.10,WNW,295,0.0,0.0,90,0.00,,,0.00,WeatherDisplay:10.37,2013-08-11 09:06:00,
2013-08-11 05:11:00,50.9,48.1,30.10,WNW,295,0.0,0.0,90,0.00,,,0.00,WeatherDisplay:10.37,2013-08-11 09:11:00,
2013-08-11 05:16:00,50.8,48.0,30.10,WNW,295,0.0,0.0,90,0.00,,,0.00,WeatherDisplay:10.37,2013-08-11 09:16:00,
2013-08-11 05:21:00,50.8,48.0,30.10,WNW,295,0.0,0.0,90,0.00,,,0.00,WeatherDisplay:10.37,2013-08-11 09:21:00,
2013-08-11 05:26:00,50.6,47.8,30.10,WNW,295,0.0,0.0,90,0.00,,,0.00,WeatherDisplay:10.37,2013-08-11 09:26:00,
2013-08-11 05:31:00,50.5,47.7,30.10,WNW,295,0.0,0.0,90,0.00,,,0.00,WeatherDisplay:10.37,2013-08-11 09:31:00,
2013-08-11 05:36:00,50.4,47.6,30.10,WNW,295,0.0,0.0,90,0.00,,,0.00,WeatherDisplay:10.37,2013-08-11 09:36:00,
2013-08-11 05:41:00,50.3,47.5,30.10,WNW,295,0.0,0.0,90,0.00,,,0.00,WeatherDisplay:10.37,2013-08-11 09:41:00,
2013-08-11 05:46:00,50.2,47.4,30.10,WNW,295,0.0,0.0,90,0.00,,,0.00,WeatherDisplay:10.37,2013-08-11 09:46:00,
2013-08-11 05:53:00,50.0,47.2,30.10,WNW,295,0.0,0.0,90,0.00,,,0.00,WeatherDisplay:10.37,2013-08-11 09:53:00,
2013-08-11 05:58:00,49.8,47.0,30.11,WNW,295,0.0,0.0,90,0.00,,,0.00,WeatherDisplay:10.37,2013-08-11 09:58:00,
2013-08-11 06:03:00,49.7,46.9,30.11,WNW,295,0.0,0.0,90,0.00,CLR,,0.00,WeatherDisplay:10.37,2013-08-11 10:03:00,
2013-08-11 06:08:00,49.7,46.9,30.11,WNW,295,0.0,0.0,90,0.00,CLR,,0.00,WeatherDisplay:10.37,2013-08-11 10:08:00,
2013-08-11 06:13:00,49.6,46.8,30.11,WNW,295,0.0,0.0,90,0.00,CLR,,0.00,WeatherDisplay:10.37,2013-08-11 10:13:00,
2013-08-11 06:18:00,49.9,47.1,30.11,WNW,295,0.0,0.0,90,0.00,CLR,,0.00,WeatherDisplay:10.37,2013-08-11 10:18:00,
2013-08-11 06:23:00,50.1,47.3,30.11,WNW,295,0.0,0.0,90,0.00,CLR,,0.00,WeatherDisplay:10.37,2013-08-11 10:23:00,
2013-08-11 06:28:00,50.1,47.3,30.11,WNW,295,0.0,0.0,90,0.00,CLR,,0.00,WeatherDisplay:10.37,2013-08-11 10:28:00,
2013-08-11 06:33:00,50.1,47.3,30.11,WNW,295,0.0,0.0,90,0.00,CLR,,0.00,WeatherDisplay:10.37,2013-08-11 10:33:00,
2013-08-11 06:38:00,50.0,47.2,30.11,WNW,295,0.0,0.0,90,0.00,CLR,,0.00,WeatherDisplay:10.37,2013-08-11 10:38:00,
2013-08-11 06:43:00,50.0,47.2,30.11,WNW,295,0.0,0.0,90,0.00,CLR,,0.00,WeatherDisplay:10.37,2013-08-11 10:43:00,
2013-08-11 06:48:00,50.1,47.3,30.11,WNW,295,0.0,0.0,90,0.00,CLR,,0.00,WeatherDisplay:10.37,2013-08-11 10:48:00,
2013-08-11 06:53:00,50.1,47.3,30.11,WNW,295,0.0,0.0,90,0.00,CLR,,0.00,WeatherDisplay:10.37,2013-08-11 10:53:00,
2013-08-11 06:58:00,50.2,47.4,30.12,WNW,295,0.0,0.0,90,0.00,CLR,,0.00,WeatherDisplay:10.37,2013-08-11 10:58:00,
2013-08-11 07:03:00,50.4,47.6,30.12,WNW,295,0.0,0.0,90,0.00,CLR,,0.00,WeatherDisplay:10.37,2013-08-11 11:03:00,
2013-08-11 07:08:00,50.7,47.9,30.12,WNW,295,0.0,0.0,90,0.00,CLR,,0.00,WeatherDisplay:10.37,2013-08-11 11:08:00,
2013-08-11 07:13:00,51.1,48.3,30.12,WNW,295,0.0,0.0,90,0.00,CLR,,0.00,WeatherDisplay:10.37,2013-08-11 11:13:00,
2013-08-11 07:18:00,51.6,49.1,30.12,WNW,295,0.0,0.0,91,0.00,CLR,,0.00,WeatherDisplay:10.37,2013-08-11 11:18:00,
2013-08-11 07:23:00,51.9,49.4,30.12,WNW,295,0.0,0.0,91,0.00,CLR,,0.00,WeatherDisplay:10.37,2013-08-11 11:23:00,
2013-08-11 07:28:00,52.2,49.7,30.12,WNW,295,0.0,0.0,91,0.00,CLR,,0.00,WeatherDisplay:10.37,2013-08-11 11:28:00,
2013-08-11 07:33:00,52.5,49.9,30.12,WNW,295,0.0,0.0,91,0.00,CLR,,0.00,WeatherDisplay:10.37,2013-08-11 11:33:00,
2013-08-11 07:38:00,53.4,51.1,30.12,WNW,295,0.0,0.0,92,0.00,CLR,,0.00,WeatherDisplay:10.37,2013-08-11 11:38:00,
2013-08-11 07:43:00,54.3,52.0,30.12,WNW,295,0.0,0.0,92,0.00,CLR,,0.00,WeatherDisplay:10.37,2013-08-11 11:43:00,
2013-08-11 07:48:00,54.7,52.4,30.12,WNW,295,0.0,0.0,92,0.00,CLR,,0.00,WeatherDisplay:10.37,2013-08-11 11:48:00,
2013-08-11 07:54:00,55.4,53.1,30.12,WNW,295,0.0,0.0,92,0.00,CLR,,0.00,WeatherDisplay:10.37,2013-08-11 11:54:00,
2013-08-11 07:59:00,56.2,53.9,30.12,WNW,295,0.0,0.0,92,0.00,CLR,,0.00,WeatherDisplay:10.37,2013-08-11 11:59:00,
2013-08-11 08:04:00,57.0,54.7,30.12,NW,304,0.0,0.0,92,0.00,CLR,,0.00,WeatherDisplay:10.37,2013-08-11 12:04:00,
2013-08-11 08:09:00,58.1,55.8,30.12,NW,304,0.0,0.0,92,0.00,CLR,,0.00,WeatherDisplay:10.37,2013-08-11 12:09:00,
2013-08-11 08:14:00,58.3,56.0,30.13,East,88,0.0,0.0,92,0.00,CLR,,0.00,WeatherDisplay:10.37,2013-08-11 12:14:00,
2013-08-11 08:19:00,58.5,56.2,30.13,WSW,255,2.3,0.0,92,0.00,CLR,,0.00,WeatherDisplay:10.37,2013-08-11 12:19:00,
2013-08-11 08:25:00,59.0,56.4,30.13,West,262,0.0,0.0,91,0.00,CLR,,0.00,WeatherDisplay:10.37,2013-08-11 12:25:00,
2013-08-11 08:30:00,59.8,56.9,30.13,East,82,1.1,0.0,90,0.00,CLR,,0.00,WeatherDisplay:10.37,2013-08-11 12:30:00,
2013-08-11 08:35:00,60.5,57.6,30.13,West,275,1.0,1.0,90,0.00,CLR,,0.00,WeatherDisplay:10.37,2013-08-11 12:35:00,
2013-08-11 08:40:00,60.9,58.9,30.13,SSW,208,1.1,1.1,93,0.00,CLR,,0.00,WeatherDisplay:10.37,2013-08-11 12:40:00,
2013-08-11 08:45:00,61.7,59.4,30.12,ESE,107,0.0,0.0,92,0.00,CLR,,0.00,WeatherDisplay:10.37,2013-08-11 12:45:00,
2013-08-11 08:51:00,62.4,59.7,30.12,WNW,288,3.5,0.0,91,0.00,CLR,,0.00,WeatherDisplay:10.37,2013-08-11 12:51:00,
2013-08-11 08:56:00,63.0,60.0,30.13,West,269,0.0,0.0,90,0.00,CLR,,0.00,WeatherDisplay:10.37,2013-08-11 12:56:00,
2013-08-11 09:01:00,63.6,60.9,30.13,West,269,0.0,0.0,91,0.00,CLR,,0.00,WeatherDisplay:10.37,2013-08-11 13:01:00,
2013-08-11 09:06:00,64.4,61.1,30.12,East,88,0.0,0.0,89,0.00,CLR,,0.00,WeatherDisplay:10.37,2013-08-11 13:06:00,
2013-08-11 09:11:00,65.5,61.2,30.12,SE,141,0.0,0.0,86,0.00,CLR,,0.00,WeatherDisplay:10.37,2013-08-11 13:11:00,
2013-08-11 09:16:00,66.3,61.7,30.12,West,281,0.0,0.0,85,0.00,CLR,,0.00,WeatherDisplay:10.37,2013-08-11 13:16:00,
2013-08-11 09:21:00,66.8,60.8,30.12,NE,37,3.5,3.5,81,0.00,CLR,,0.00,WeatherDisplay:10.37,2013-08-11 13:21:00,
2013-08-11 09:26:00,67.1,61.4,30.13,SE,131,1.1,1.1,82,0.00,CLR,,0.00,WeatherDisplay:10.37,2013-08-11 13:26:00,
2013-08-11 09:31:00,67.6,61.2,30.12,SSE,155,0.0,0.0,80,0.00,CLR,,0.00,WeatherDisplay:10.37,2013-08-11 13:31:00,
2013-08-11 09:36:00,67.5,60.0,30.12,WNW,285,2.3,2.3,77,0.00,CLR,,0.00,WeatherDisplay:10.37,2013-08-11 13:36:00,
2013-08-11 09:41:00,67.7,61.0,30.13,West,280,1.1,0.0,79,0.00,CLR,,0.00,WeatherDisplay:10.37,2013-08-11 13:41:00,
2013-08-11 09:46:00,68.3,61.5,30.12,NNW,334,1.1,1.1,79,0.00,CLR,,0.00,WeatherDisplay:10.37,2013-08-11 13:46:00,
2013-08-11 09:51:00,68.7,60.5,30.13,North,8,2.3,2.3,75,0.00,CLR,,0.00,WeatherDisplay:10.37,2013-08-11 13:51:00,
2013-08-11 09:57:00,68.9,60.3,30.12,SW,231,1.1,0.0,74,0.00,CLR,,0.00,WeatherDisplay:10.37,2013-08-11 13:57:00,
2013-08-11 10:02:00,69.4,60.4,30.12,NE,49,4.6,4.6,73,0.00,CLR,,0.00,WeatherDisplay:10.37,2013-08-11 14:02:00,
2013-08-11 10:07:00,69.2,58.6,30.13,NW,304,2.3,2.3,69,0.00,CLR,,0.00,WeatherDisplay:10.37,2013-08-11 14:07:00,
2013-08-11 10:12:00,69.2,59.4,30.13,SSW,193,2.3,2.3,71,0.00,CLR,,0.00,WeatherDisplay:10.37,2013-08-11 14:12:00,
2013-08-11 10:18:00,69.9,59.3,30.13,West,281,2.3,2.3,69,0.00,CLR,,0.00,WeatherDisplay:10.37,2013-08-11 14:18:00,
2013-08-11 10:23:00,69.9,58.0,30.13,West,270,2.3,2.3,66,0.00,CLR,,0.00,WeatherDisplay:10.37,2013-08-11 14:23:00,
2013-08-11 10:28:00,70.7,60.0,30.13,West,281,3.5,3.5,69,0.00,CLR,,0.00,WeatherDisplay:10.37,2013-08-11 14:28:00,
2013-08-11 10:33:00,70.5,57.3,30.13,NE,51,3.5,3.5,63,0.00,CLR,,0.00,WeatherDisplay:10.37,2013-08-11 14:33:00,
2013-08-11 10:38:00,70.5,58.6,30.13,West,259,2.3,2.3,66,0.00,CLR,,0.00,WeatherDisplay:10.37,2013-08-11 14:38:00,
2013-08-11 10:44:00,71.2,58.4,30.13,WNW,285,3.5,3.5,64,0.00,CLR,,0.00,WeatherDisplay:10.37,2013-08-11 14:44:00,
2013-08-11 10:49:00,71.0,57.8,30.13,SW,229,3.5,3.5,63,0.00,CLR,,0.00,WeatherDisplay:10.37,2013-08-11 14:49:00,
2013-08-11 10:54:00,71.5,59.1,30.12,West,265,3.5,3.5,65,0.00,CLR,,0.00,WeatherDisplay:10.37,2013-08-11 14:54:00,
2013-08-11 10:59:00,71.9,59.5,30.12,SW,222,1.0,1.0,65,0.00,CLR,,0.00,WeatherDisplay:10.37,2013-08-11 14:59:00,
2013-08-11 11:04:00,72.3,59.4,30.12,SSW,201,1.1,1.1,64,0.00,CLR,,0.00,WeatherDisplay:10.37,2013-08-11 15:04:00,
2013-08-11 11:09:00,72.7,59.8,30.12,SE,131,3.5,3.5,64,0.00,CLR,,0.00,WeatherDisplay:10.37,2013-08-11 15:09:00,
2013-08-11 11:14:00,73.2,58.9,30.12,West,270,3.5,3.5,61,0.00,CLR,,0.00,WeatherDisplay:10.37,2013-08-11 15:14:00,
2013-08-11 11:19:00,72.2,58.9,30.12,SSE,166,4.6,4.6,63,0.00,CLR,,0.00,WeatherDisplay:10.37,2013-08-11 15:19:00,
2013-08-11 11:24:00,71.4,59.4,30.12,NNE,17,3.5,3.5,66,0.00,CLR,,0.00,WeatherDisplay:10.37,2013-08-11 15:24:00,
2013-08-11 11:30:00,70.8,59.7,30.12,WSW,245,2.0,2.0,68,0.00,CLR,,0.00,WeatherDisplay:10.37,2013-08-11 15:30:00,
2013-08-11 11:35:00,71.3,58.5,30.12,NW,319,2.3,2.3,64,0.00,CLR,,0.00,WeatherDisplay:10.37,2013-08-11 15:35:00,
2013-08-11 11:40:00,71.2,58.0,30.12,WSW,242,2.3,2.3,63,0.00,CLR,,0.00,WeatherDisplay:10.37,2013-08-11 15:40:00,
2013-08-11 11:45:00,71.3,58.5,30.12,ESE,115,1.1,1.1,64,0.00,CLR,,0.00,WeatherDisplay:10.37,2013-08-11 15:45:00,
2013-08-11 11:50:00,71.8,59.4,30.12,WSW,242,3.5,3.5,65,0.00,CLR,,0.00,WeatherDisplay:10.37,2013-08-11 15:50:00,
2013-08-11 11:56:00,73.0,58.3,30.12,ENE,70,3.5,3.5,60,0.00,CLR,,0.00,WeatherDisplay:10.37,2013-08-11 15:56:00,
2013-08-11 12:01:00,73.2,58.5,30.12,West,262,5.0,5.0,60,0.00,CLR,,0.00,WeatherDisplay:10.37,2013-08-11 16:01:00,
2013-08-11 12:06:00,73.1,58.8,30.12,NNW,330,3.5,3.5,61,0.00,CLR,,0.00,WeatherDisplay:10.37,2013-08-11 16:06:00,
2013-08-11 12:11:00,71.9,57.7,30.12,West,278,3.5,3.5,61,0.00,CLR,,0.00,WeatherDisplay:10.37,2013-08-11 16:11:00,
2013-08-11 12:16:00,71.6,59.2,30.11,WNW,288,2.3,2.3,65,0.00,CLR,,0.00,WeatherDisplay:10.37,2013-08-11 16:16:00,
2013-08-11 12:22:00,71.5,56.9,30.12,West,270,3.5,3.5,60,0.00,CLR,,0.00,WeatherDisplay:10.37,2013-08-11 16:22:00,
2013-08-11 12:27:00,71.2,58.4,30.12,WNW,300,0.0,0.0,64,0.00,CLR,,0.00,WeatherDisplay:10.37,2013-08-11 16:27:00,
2013-08-11 12:32:00,71.8,57.6,30.11,West,259,1.1,0.0,61,0.00,CLR,,0.00,WeatherDisplay:10.37,2013-08-11 16:32:00,
2013-08-11 12:37:00,71.9,57.3,30.12,NE,49,2.3,2.3,60,0.00,CLR,,0.00,WeatherDisplay:10.37,2013-08-11 16:37:00,
2013-08-11 12:42:00,71.6,58.8,30.11,North,355,2.3,2.3,64,0.00,CLR,,0.00,WeatherDisplay:10.37,2013-08-11 16:42:00,
2013-08-11 12:47:00,71.4,58.6,30.12,WSW,245,1.1,0.0,64,0.00,CLR,,0.00,WeatherDisplay:10.37,2013-08-11 16:47:00,
2013-08-11 12:52:00,71.2,58.4,30.11,WSW,255,2.3,2.3,64,0.00,CLR,,0.00,WeatherDisplay:10.37,2013-08-11 16:52:00,
2013-08-11 12:58:00,72.2,58.0,30.11,West,262,7.0,7.0,61,0.00,CLR,,0.00,WeatherDisplay:10.37,2013-08-11 16:58:00,
2013-08-11 13:03:00,72.2,58.9,30.11,West,267,1.1,0.0,63,0.00,CLR,,0.00,WeatherDisplay:10.37,2013-08-11 17:03:00,
2013-08-11 13:08:00,72.6,60.2,30.11,NNW,328,3.0,3.0,65,0.00,CLR,,0.00,WeatherDisplay:10.37,2013-08-11 17:08:00,
2013-08-11 13:13:00,73.3,56.7,30.10,East,94,2.3,0.0,56,0.00,CLR,,0.00,WeatherDisplay:10.37,2013-08-11 17:13:00,
2013-08-11 13:19:00,73.7,57.0,30.10,ESE,117,3.5,3.5,56,0.00,CLR,,0.00,WeatherDisplay:10.37,2013-08-11 17:19:00,
2013-08-11 13:24:00,73.7,57.0,30.10,SE,127,1.1,0.0,56,0.00,CLR,,0.00,WeatherDisplay:10.37,2013-08-11 17:24:00,
2013-08-11 13:29:00,73.3,58.6,30.10,NW,319,3.5,3.5,60,0.00,CLR,,0.00,WeatherDisplay:10.37,2013-08-11 17:29:00,
2013-08-11 13:34:00,73.2,60.7,30.10,WSW,250,2.3,2.3,65,0.00,CLR,,0.00,WeatherDisplay:10.37,2013-08-11 17:34:00,
2013-08-11 13:39:00,73.6,60.2,30.10,NNW,333,3.5,3.5,63,0.00,CLR,,0.00,WeatherDisplay:10.37,2013-08-11 17:39:00,
2013-08-11 13:45:00,73.3,60.4,30.10,WNW,297,3.5,3.5,64,0.00,CLR,,0.00,WeatherDisplay:10.37,2013-08-11 17:45:00,
2013-08-11 13:50:00,72.8,60.8,30.10,NNE,33,2.3,2.3,66,0.00,CLR,,0.00,WeatherDisplay:10.37,2013-08-11 17:50:00,
2013-08-11 13:55:00,72.4,61.2,30.09,NNE,33,0.0,0.0,68,0.00,CLR,,0.00,WeatherDisplay:10.37,2013-08-11 17:55:00,
2013-08-11 14:00:00,72.3,59.4,30.09,East,82,2.3,2.3,64,0.00,CLR,,0.00,WeatherDisplay:10.37,2013-08-11 18:00:00,
2013-08-11 14:05:00,72.2,58.9,30.09,ESE,120,3.5,3.5,63,0.00,CLR,,0.00,WeatherDisplay:10.37,2013-08-11 18:05:00,
2013-08-11 14:10:00,72.5,61.3,30.09,SE,136,1.1,1.1,68,0.00,CLR,,0.00,WeatherDisplay:10.37,2013-08-11 18:10:00,
2013-08-11 14:15:00,73.5,58.8,30.09,NW,313,1.1,1.1,60,0.00,CLR,,0.00,WeatherDisplay:10.37,2013-08-11 18:15:00,
2013-08-11 14:20:00,74.1,58.4,30.09,ESE,107,1.1,1.1,58,0.00,CLR,,0.00,WeatherDisplay:10.37,2013-08-11 18:20:00,
2013-08-11 14:25:00,75.0,59.7,30.09,South,187,2.3,2.3,59,0.00,CLR,,0.00,WeatherDisplay:10.37,2013-08-11 18:25:00,
2013-08-11 14:31:00,75.7,59.9,30.09,NNE,25,3.5,3.5,58,0.00,CLR,,0.00,WeatherDisplay:10.37,2013-08-11 18:31:00,
2013-08-11 14:36:00,74.6,60.3,30.09,WNW,299,2.3,2.3,61,0.00,CLR,,0.00,WeatherDisplay:10.37,2013-08-11 18:36:00,
2013-08-11 14:41:00,73.8,60.9,30.09,ENE,66,2.3,2.3,64,0.00,CLR,,0.00,WeatherDisplay:10.37,2013-08-11 18:41:00,
2013-08-11 14:46:00,73.1,61.1,30.09,East,94,2.3,2.3,66,0.00,CLR,,0.00,WeatherDisplay:10.37,2013-08-11 18:46:00,
2013-08-11 14:51:00,72.5,62.2,30.09,ESE,105,1.0,1.0,70,0.00,CLR,,0.00,WeatherDisplay:10.37,2013-08-11 18:51:00,
2013-08-11 14:56:00,72.8,63.2,30.09,ENE,72,2.0,2.0,72,0.00,CLR,,0.00,WeatherDisplay:10.37,2013-08-11 18:56:00,
2013-08-11 15:01:00,72.6,61.0,30.09,NNW,342,2.3,2.3,67,0.00,CLR,,0.00,WeatherDisplay:10.37,2013-08-11 19:01:00,
2013-08-11 15:06:00,72.2,61.0,30.09,WNW,283,3.5,3.5,68,0.00,CLR,,0.00,WeatherDisplay:10.37,2013-08-11 19:06:00,
2013-08-11 15:12:00,72.7,62.3,30.08,SW,229,3.5,0.0,70,0.00,CLR,,0.00,WeatherDisplay:10.37,2013-08-11 19:12:00,
2013-08-11 15:17:00,73.0,61.4,30.08,East,89,8.1,8.1,67,0.00,CLR,,0.00,WeatherDisplay:10.37,2013-08-11 19:17:00,
2013-08-11 15:22:00,73.1,61.1,30.08,East,91,3.5,3.5,66,0.00,CLR,,0.00,WeatherDisplay:10.37,2013-08-11 19:22:00,
2013-08-11 15:27:00,72.9,61.3,30.08,NE,49,3.5,3.5,67,0.00,CLR,,0.00,WeatherDisplay:10.37,2013-08-11 19:27:00,
2013-08-11 15:32:00,73.0,61.0,30.08,West,265,2.0,2.0,66,0.00,CLR,,0.00,WeatherDisplay:10.37,2013-08-11 19:32:00,
2013-08-11 15:37:00,72.7,63.1,30.08,North,352,0.0,0.0,72,0.00,CLR,,0.00,WeatherDisplay:10.37,2013-08-11 19:37:00,
2013-08-11 15:42:00,72.3,62.4,30.08,NNW,328,0.0,0.0,71,0.00,CLR,,0.00,WeatherDisplay:10.37,2013-08-11 19:42:00,
2013-08-11 15:48:00,72.3,62.0,30.07,West,264,2.0,2.0,70,0.00,CLR,,0.00,WeatherDisplay:10.37,2013-08-11 19:48:00,
2013-08-11 15:53:00,73.0,61.0,30.07,WSW,239,3.5,3.5,66,0.00,CLR,,0.00,WeatherDisplay:10.37,2013-08-11 19:53:00,
2013-08-11 15:58:00,73.3,61.3,30.07,SE,131,3.5,0.0,66,0.00,CLR,,0.00,WeatherDisplay:10.37,2013-08-11 19:58:00,
2013-08-11 16:03:00,73.8,62.2,30.07,SSE,148,3.5,3.5,67,0.00,CLR,,0.00,WeatherDisplay:10.37,2013-08-11 20:03:00,
2013-08-11 16:09:00,74.2,62.1,30.07,NW,326,1.1,0.0,66,0.00,CLR,,0.00,WeatherDisplay:10.37,2013-08-11 20:09:00,
2013-08-11 16:14:00,73.7,61.6,30.07,NNW,330,1.1,0.0,66,0.00,CLR,,0.00,WeatherDisplay:10.37,2013-08-11 20:14:00,
2013-08-11 16:19:00,72.8,61.2,30.07,ENE,77,1.1,1.1,67,0.00,CLR,,0.00,WeatherDisplay:10.37,2013-08-11 20:19:00,
2013-08-11 16:24:00,72.3,60.7,30.07,North,11,2.3,2.3,67,0.00,CLR,,0.00,WeatherDisplay:10.37,2013-08-11 20:24:00,
2013-08-11 16:29:00,72.1,61.0,30.07,NE,48,2.0,2.0,68,0.00,CLR,,0.00,WeatherDisplay:10.37,2013-08-11 20:29:00,
2013-08-11 16:34:00,72.4,61.2,30.06,East,88,3.5,3.5,68,0.00,CLR,,0.00,WeatherDisplay:10.37,2013-08-11 20:34:00,
2013-08-11 16:39:00,71.8,60.7,30.06,ESE,121,1.1,0.0,68,0.00,CLR,,0.00,WeatherDisplay:10.37,2013-08-11 20:39:00,
2013-08-11 16:45:00,71.7,62.6,30.06,ESE,121,0.0,0.0,73,0.00,CLR,,0.00,WeatherDisplay:10.37,2013-08-11 20:45:00,
2013-08-11 16:50:00,71.5,60.8,30.06,ESE,121,0.0,0.0,69,0.00,CLR,,0.00,WeatherDisplay:10.37,2013-08-11 20:50:00,
2013-08-11 16:55:00,71.6,63.3,30.06,ESE,121,0.0,0.0,75,0.00,CLR,,0.00,WeatherDisplay:10.37,2013-08-11 20:55:00,
2013-08-11 17:00:00,72.3,61.1,30.06,NE,44,1.1,1.1,68,0.00,CLR,,0.00,WeatherDisplay:10.37,2013-08-11 21:00:00,
2013-08-11 17:05:00,72.4,61.2,30.06,South,181,2.3,2.3,68,0.00,CLR,,0.00,WeatherDisplay:10.37,2013-08-11 21:05:00,
2013-08-11 17:10:00,72.9,60.4,30.06,SE,136,3.0,3.0,65,0.00,CLR,,0.00,WeatherDisplay:10.37,2013-08-11 21:10:00,
2013-08-11 17:15:00,73.0,61.0,30.06,ESE,113,2.3,2.3,66,0.00,CLR,,0.00,WeatherDisplay:10.37,2013-08-11 21:15:00,
2013-08-11 17:20:00,73.8,62.6,30.06,West,278,1.1,0.0,68,0.00,CLR,,0.00,WeatherDisplay:10.37,2013-08-11 21:20:00,
2013-08-11 17:26:00,74.1,62.0,30.06,WNW,288,0.0,0.0,66,0.00,CLR,,0.00,WeatherDisplay:10.37,2013-08-11 21:26:00,
2013-08-11 17:31:00,74.0,61.0,30.06,NNE,27,1.1,0.0,64,0.00,CLR,,0.00,WeatherDisplay:10.37,2013-08-11 21:31:00,
2013-08-11 17:36:00,74.2,62.1,30.06,West,267,2.3,2.3,66,0.00,CLR,,0.00,WeatherDisplay:10.37,2013-08-11 21:36:00,
2013-08-11 17:41:00,74.4,62.7,30.06,West,278,0.0,0.0,67,0.00,CLR,,0.00,WeatherDisplay:10.37,2013-08-11 21:41:00,
2013-08-11 17:46:00,74.7,63.9,30.05,WNW,292,0.0,0.0,69,0.00,CLR,,0.00,WeatherDisplay:10.37,2013-08-11 21:46:00,
2013-08-11 17:51:00,75.1,62.5,30.05,WNW,295,1.1,1.1,65,0.00,CLR,,0.00,WeatherDisplay:10.37,2013-08-11 21:51:00,
2013-08-11 17:56:00,74.7,61.3,30.05,WNW,295,1.1,1.1,63,0.00,CLR,,0.00,WeatherDisplay:10.37,2013-08-11 21:56:00,
2013-08-11 18:01:00,74.7,63.0,30.05,WNW,295,1.1,1.1,67,0.00,CLR,,0.00,WeatherDisplay:10.37,2013-08-11 22:01:00,
2013-08-11 18:06:00,75.0,62.4,30.05,WNW,285,1.1,0.0,65,0.00,CLR,,0.00,WeatherDisplay:10.37,2013-08-11 22:06:00,
2013-08-11 18:11:00,75.1,63.0,30.05,WNW,299,0.0,0.0,66,0.00,CLR,,0.00,WeatherDisplay:10.37,2013-08-11 22:11:00,
2013-08-11 18:17:00,74.8,62.7,30.05,ESE,119,0.0,0.0,66,0.00,CLR,,0.00,WeatherDisplay:10.37,2013-08-11 22:17:00,
2013-08-11 18:22:00,74.5,63.2,30.05,East,98,0.0,0.0,68,0.00,CLR,,0.00,WeatherDisplay:10.37,2013-08-11 22:22:00,
2013-08-11 18:27:00,73.6,62.0,30.05,NE,41,0.0,0.0,67,0.00,CLR,,0.00,WeatherDisplay:10.37,2013-08-11 22:27:00,
2013-08-11 18:32:00,73.0,61.4,30.05,NE,41,0.0,0.0,67,0.00,CLR,,0.00,WeatherDisplay:10.37,2013-08-11 22:32:00,
2013-08-11 18:37:00,72.1,62.2,30.05,NE,41,0.0,0.0,71,0.00,CLR,,0.00,WeatherDisplay:10.37,2013-08-11 22:37:00,
2013-08-11 18:42:00,71.3,61.8,30.05,NE,41,0.0,0.0,72,0.00,CLR,,0.00,WeatherDisplay:10.37,2013-08-11 22:42:00,
2013-08-11 18:47:00,71.1,61.6,30.05,SW,233,0.0,0.0,72,0.00,CLR,,0.00,WeatherDisplay:10.37,2013-08-11 22:47:00,
2013-08-11 18:52:00,71.5,62.4,30.05,ESE,115,0.0,0.0,73,0.00,CLR,,0.00,WeatherDisplay:10.37,2013-08-11 22:52:00,
2013-08-11 18:57:00,71.4,61.9,30.04,NNE,21,1.1,0.0,72,0.00,CLR,,0.00,WeatherDisplay:10.37,2013-08-11 22:57:00,
2013-08-11 19:02:00,70.8,60.9,30.04,NNW,330,0.0,0.1,71,0.00,CLR,,0.00,WeatherDisplay:10.37,2013-08-11 23:02:00,
2013-08-11 19:07:00,70.2,60.0,30.04,North,6,1.0,1.0,70,0.00,CLR,,0.00,WeatherDisplay:10.37,2013-08-11 23:07:00,
2013-08-11 19:12:00,69.6,59.8,30.04,ESE,115,0.0,0.0,71,0.00,CLR,,0.00,WeatherDisplay:10.37,2013-08-11 23:12:00,
2013-08-11 19:17:00,69.0,60.4,30.04,East,81,0.0,0.0,74,0.00,CLR,,0.00,WeatherDisplay:10.37,2013-08-11 23:17:00,
2013-08-11 19:23:00,68.5,60.3,30.04,ENE,61,0.0,0.0,75,0.00,CLR,,0.00,WeatherDisplay:10.37,2013-08-11 23:23:00,
2013-08-11 19:28:00,67.9,60.4,30.04,ENE,61,0.0,0.0,77,0.00,CLR,,0.00,WeatherDisplay:10.37,2013-08-11 23:28:00,
2013-08-11 19:33:00,67.1,60.7,30.04,ENE,61,0.0,0.0,80,0.00,CLR,,0.00,WeatherDisplay:10.37,2013-08-11 23:33:00,
2013-08-11 19:38:00,66.6,60.6,30.04,ENE,60,0.0,0.0,81,0.00,CLR,,0.00,WeatherDisplay:10.37,2013-08-11 23:38:00,
2013-08-11 19:43:00,66.0,60.3,30.04,ENE,60,0.0,0.0,82,0.00,CLR,,0.00,WeatherDisplay:10.37,2013-08-11 23:43:00,
2013-08-11 19:48:00,65.4,60.1,30.05,ENE,60,0.0,0.0,83,0.00,CLR,,0.00,WeatherDisplay:10.37,2013-08-11 23:48:00,
2013-08-11 19:53:00,64.9,60.3,30.05,ENE,61,0.0,0.0,85,0.00,CLR,,0.00,WeatherDisplay:10.37,2013-08-11 23:53:00,
2013-08-11 19:58:00,64.5,59.9,30.05,ENE,61,0.0,0.0,85,0.00,CLR,,0.00,WeatherDisplay:10.37,2013-08-11 23:58:00,
2013-08-11 20:04:00,64.1,59.8,30.04,ENE,61,0.0,0.0,86,0.00,CLR,,0.00,WeatherDisplay:10.37,2013-08-12 00:04:00,
2013-08-11 20:09:00,63.7,59.4,30.04,ENE,60,0.0,0.0,86,0.00,CLR,,0.00,WeatherDisplay:10.37,2013-08-12 00:09:00,
2013-08-11 20:14:00,63.3,59.4,30.04,ENE,60,0.0,0.0,87,0.00,CLR,,0.00,WeatherDisplay:10.37,2013-08-12 00:14:00,
2013-08-11 20:20:00,62.7,58.8,30.05,ENE,61,0.0,0.0,87,0.00,CLR,,0.00,WeatherDisplay:10.37,2013-08-12 00:20:00,
2013-08-11 20:25:00,62.3,58.7,30.05,ENE,60,0.0,0.0,88,0.00,CLR,,0.00,WeatherDisplay:10.37,2013-08-12 00:25:00,
2013-08-11 20:31:00,61.8,58.2,30.04,ENE,60,0.0,0.0,88,0.00,CLR,,0.00,WeatherDisplay:10.37,2013-08-12 00:31:00,
2013-08-11 20:36:00,61.4,58.1,30.04,ENE,61,0.0,0.0,89,0.00,CLR,,0.00,WeatherDisplay:10.37,2013-08-12 00:36:00,
2013-08-11 20:41:00,61.2,58.2,30.04,ENE,61,0.0,0.0,90,0.00,CLR,,0.00,WeatherDisplay:10.37,2013-08-12 00:41:00,
2013-08-11 20:46:00,60.7,57.7,30.04,ENE,61,0.0,0.0,90,0.00,CLR,,0.00,WeatherDisplay:10.37,2013-08-12 00:46:00,
2013-08-11 20:51:00,60.3,57.4,30.05,ENE,60,0.0,0.0,90,0.00,,,0.00,WeatherDisplay:10.37,2013-08-12 00:51:00,
2013-08-11 20:56:00,60.0,57.4,30.04,ENE,61,0.0,0.0,91,0.00,,,0.00,WeatherDisplay:10.37,2013-08-12 00:56:00,
2013-08-11 21:01:00,59.7,57.1,30.05,ENE,61,0.0,0.0,91,0.00,,,0.00,WeatherDisplay:10.37,2013-08-12 01:01:00,
2013-08-11 21:06:00,59.4,56.8,30.05,ENE,61,0.0,0.0,91,0.00,,,0.00,WeatherDisplay:10.37,2013-08-12 01:06:00,
2013-08-11 21:11:00,59.2,56.6,30.05,ENE,61,0.0,0.0,91,0.00,,,0.00,WeatherDisplay:10.37,2013-08-12 01:11:00,
2013-08-11 21:17:00,58.9,56.6,30.04,ENE,61,0.0,0.0,92,0.00,,,0.00,WeatherDisplay:10.37,2013-08-12 01:17:00,
2013-08-11 21:22:00,58.8,56.5,30.04,ENE,60,0.0,0.0,92,0.00,,,0.00,WeatherDisplay:10.37,2013-08-12 01:22:00,
2013-08-11 21:27:00,58.6,56.3,30.05,ENE,60,0.0,0.0,92,0.00,,,0.00,WeatherDisplay:10.37,2013-08-12 01:27:00,
2013-08-11 21:32:00,58.5,56.2,30.05,ENE,60,0.0,0.0,92,0.00,,,0.00,WeatherDisplay:10.37,2013-08-12 01:32:00,
2013-08-11 21:37:00,58.3,56.0,30.05,ENE,60,0.0,0.0,92,0.00,,,0.00,WeatherDisplay:10.37,2013-08-12 01:37:00,
2013-08-11 21:42:00,58.2,55.9,30.05,ENE,60,0.0,0.0,92,0.00,,,0.00,WeatherDisplay:10.37,2013-08-12 01:42:00,
2013-08-11 21:47:00,58.0,55.7,30.05,ENE,60,0.0,0.0,92,0.00,,,0.00,WeatherDisplay:10.37,2013-08-12 01:47:00,
2013-08-11 21:52:00,58.1,55.8,30.05,ENE,60,0.0,0.0,92,0.00,,,0.00,WeatherDisplay:10.37,2013-08-12 01:52:00,
2013-08-11 21:58:00,58.1,55.8,30.05,ENE,60,0.0,0.0,92,0.00,,,0.00,WeatherDisplay:10.37,2013-08-12 01:58:00,
2013-08-11 22:03:00,58.1,55.8,30.04,ENE,60,0.0,0.0,92,0.00,,,0.00,WeatherDisplay:10.37,2013-08-12 02:03:00,
2013-08-11 22:08:00,58.1,55.8,30.04,ENE,60,0.0,0.0,92,0.00,,,0.00,WeatherDisplay:10.37,2013-08-12 02:08:00,
2013-08-11 22:13:00,58.1,55.8,30.05,ENE,60,0.0,0.0,92,0.00,,,0.00,WeatherDisplay:10.37,2013-08-12 02:13:00,
2013-08-11 22:18:00,58.1,55.8,30.05,ENE,61,0.0,0.0,92,0.00,,,0.00,WeatherDisplay:10.37,2013-08-12 02:18:00,
2013-08-11 22:23:00,58.2,55.9,30.04,ENE,61,0.0,0.0,92,0.00,,,0.00,WeatherDisplay:10.37,2013-08-12 02:23:00,
2013-08-11 22:28:00,58.4,55.8,30.04,ENE,61,0.0,0.0,91,0.00,,,0.00,WeatherDisplay:10.37,2013-08-12 02:28:00,
2013-08-11 22:33:00,58.5,55.9,30.05,ENE,61,0.0,0.0,91,0.00,,,0.00,WeatherDisplay:10.37,2013-08-12 02:33:00,
2013-08-11 22:38:00,58.5,55.9,30.05,ENE,60,0.0,0.0,91,0.00,,,0.00,WeatherDisplay:10.37,2013-08-12 02:38:00,
2013-08-11 22:43:00,58.6,56.0,30.05,ENE,61,0.0,0.0,91,0.00,,,0.00,WeatherDisplay:10.37,2013-08-12 02:43:00,
2013-08-11 22:48:00,58.7,56.1,30.05,ENE,60,0.0,0.0,91,0.00,,,0.00,WeatherDisplay:10.37,2013-08-12 02:48:00,
2013-08-11 22:53:00,58.8,56.2,30.05,ENE,61,0.0,0.0,91,0.00,,,0.00,WeatherDisplay:10.37,2013-08-12 02:53:00,
2013-08-11 22:58:00,58.9,56.3,30.05,ENE,60,0.0,0.0,91,0.00,,,0.00,WeatherDisplay:10.37,2013-08-12 02:58:00,
2013-08-11 23:03:00,58.8,56.2,30.05,ENE,61,0.0,0.0,91,0.00,,,0.00,WeatherDisplay:10.37,2013-08-12 03:03:00,
2013-08-11 23:08:00,58.9,56.3,30.05,ENE,61,0.0,0.0,91,0.00,,,0.00,WeatherDisplay:10.37,2013-08-12 03:08:00,
2013-08-11 23:14:00,58.9,56.3,30.05,ENE,60,0.0,0.0,91,0.00,,,0.00,WeatherDisplay:10.37,2013-08-12 03:14:00,
2013-08-11 23:19:00,58.9,56.3,30.05,ENE,60,0.0,0.0,91,0.00,,,0.00,WeatherDisplay:10.37,2013-08-12 03:19:00,
2013-08-11 23:24:00,58.9,56.3,30.05,ENE,61,0.0,0.0,91,0.00,,,0.00,WeatherDisplay:10.37,2013-08-12 03:24:00,
2013-08-11 23:29:00,59.0,56.4,30.05,ENE,60,0.0,0.0,91,0.00,,,0.00,WeatherDisplay:10.37,2013-08-12 03:29:00,
2013-08-11 23:34:00,59.0,56.4,30.05,ENE,60,0.0,0.0,91,0.00,,,0.00,WeatherDisplay:10.37,2013-08-12 03:34:00,
2013-08-11 23:39:00,59.0,56.4,30.05,ENE,61,0.0,0.0,91,0.00,,,0.00,WeatherDisplay:10.37,2013-08-12 03:39:00,
2013-08-11 23:45:00,59.0,56.4,30.05,ENE,60,0.0,0.0,91,0.00,,,0.00,WeatherDisplay:10.37,2013-08-12 03:45:00,
2013-08-11 23:50:00,59.0,56.4,30.05,ENE,60,0.0,0.0,91,0.00,,,0.00,WeatherDisplay:10.37,2013-08-12 03:50:00,
2013-08-11 23:55:00,59.1,56.5,30.05,ENE,60,0.0,0.0,91,0.00,,,0.00,WeatherDisplay:10.37,2013-08-12 03:55:00,